This is the latest recevied weather packets stored in our database for station/object NK7I. If no packets are shown the sender has not sent any weather packets the latest 10 day(s).
| Time | Temp. | Humidity | Pressure | Rain* | Wind** | Luminosity | Snow |
|---|---|---|---|---|---|---|---|
| 1777573882 | 16.11° C | 46% | 1022.2 hPa | 0 mm | - | 1236 W/m² | - |
| 1777573582 | 16.11° C | 49% | 1022.2 hPa | 0 mm | - | 1229 W/m² | - |
| 1777573282 | 16.11° C | 47% | 1022.3 hPa | 0 mm | - | 1222 W/m² | - |
| 1777572984 | 16.11° C | 47% | 1022.5 hPa | 0 mm | - | 1209 W/m² | - |
| 1777572682 | 16.11° C | 43% | 1022.5 hPa | 0 mm | - | 1201 W/m² | - |
| 1777572383 | 16.11° C | 46% | 1022.5 hPa | 0 mm | - | 1194 W/m² | - |
| 1777572082 | 16.11° C | 46% | 1022.5 hPa | 0 mm | - | 1181 W/m² | - |
| 1777571782 | 16.11° C | 50% | 1022.6 hPa | 0 mm | - | 1171 W/m² | - |
| 1777571482 | 15.56° C | 51% | 1022.7 hPa | 0 mm | - | 1155 W/m² | - |
| 1777571183 | 15° C | 52% | 1022.8 hPa | 0 mm | - | 1143 W/m² | - |
| 1777570882 | 15° C | 49% | 1022.9 hPa | 0 mm | - | 1123 W/m² | - |
| 1777570582 | 14.44° C | 50% | 1023 hPa | 0 mm | - | 1118 W/m² | - |
| 1777570282 | 14.44° C | 54% | 1023 hPa | 0 mm | - | 1109 W/m² | - |
| 1777569982 | 14.44° C | 51% | 1023 hPa | 0 mm | - | 1093 W/m² | - |
| 1777569682 | 13.89° C | 54% | 1023.2 hPa | 0 mm | - | 1083 W/m² | - |
| 1777569382 | 13.89° C | 54% | 1023.3 hPa | 0 mm | - | 1067 W/m² | - |
| 1777569082 | 13.33° C | 55% | 1023.3 hPa | 0 mm | - | 1051 W/m² | - |
| 1777568784 | 12.78° C | 56% | 1023.3 hPa | 0 mm | - | 1034 W/m² | - |
| 1777568482 | 12.78° C | 58% | 1023.5 hPa | 0 mm | - | 1018 W/m² | - |
| 1777568182 | 12.78° C | 57% | 1023.6 hPa | 0 mm | - | 1005 W/m² | - |
| 1777567882 | 12.22° C | 55% | 1023.6 hPa | 0 mm | - | 986 W/m² | - |
| 1777567582 | 12.22° C | 58% | 1023.6 hPa | 0 mm | - | 731 W/m² | - |
| 1777567283 | 12.22° C | 57% | 1023.7 hPa | 0 mm | - | 949 W/m² | - |
| 1777566982 | 12.22° C | 56% | 1023.8 hPa | 0 mm | - | 935 W/m² | - |
| 1777566682 | 12.22° C | 58% | 1023.7 hPa | 0 mm | - | 916 W/m² | - |
* Rain latest hour (hover to see other rain measurements)
** Current wind speed in m/s (hover to see current wind gust speed)